Location: Newark
(48.5667°N, 12.8167°E)
Time: 20:42:57
(UTC+00:00)

METEOR M2 - Pass Details

Date: 26 November 2019
Orbit: 818 x 828 km, 98.5° (Epoch: 08 December)

Event Time Altitude Azimuth Distance (km) Brightness Sun altitude
Exits shadow 19:18:26 12° 338° (NNW) 2,277 ? -38.9°
Drops below altitude 10° 19:18:50 10° 339° (NNW) 2,432 ? -39.0°
Sets 19:21:14 0° 343° (NNW) 3,368 ? -39.4°
